Terminal Aerodrome Forecast
Issued by NWS

Home | Current Version | Previous Version | Text Only | Print | Product List | Glossary Off
Versions: 1 2 3 4 5 6 7 8 9 10 11 12 13 14 15 16

000
FTUS43 KFGF 220935 AAA
TAFBJI
TAF AMD
KBJI 220935Z 2210/2306 27005KT P6SM VCSH OVC011
      TEMPO 2210/2212 4SM -RA BR BKN003
     FM221200 29007KT P6SM OVC003
     FM221400 30008KT P6SM OVC010
     FM230000 33008KT P6SM OVC020=

USA.gov is the U.S. government's official web portal to all federal, state and local government web resources and services.